Tracking 28790 objects as of 18-Apr-2024
HD Live streaming from Space Station
objects crossing your sky now

CHUANG XIN 1-02(CX-1-02)

Track CHUANG XIN 1-02(CX-1-02) now!
10-day predictions
CHUANG XIN 1-02(CX-1-02) is classified as:


NORAD ID: 33434
Int'l Code: 2008-056B
Perigee: 790.1 km
Apogee: 809.1 km
Inclination: 98.7 °
Period: 100.7 minutes
Semi major axis: 7170 km
RCS: 0.5773 m2 (medium)
Launch date: November 5, 2008
Source: People's Republic of China (PRC)
Launch site: Jiuquan Satellite Launch Center, China (JSC)

Shiyan 3 will test new technologies for atmospheric exploration.
Your satellite tracking list
Your tracking list is empty




NASA's NSSDC Master Catalog

Two Line Element Set (TLE):
1 33434U 08056B   24109.47907437  .00000343  00000-0  15085-3 0  9995
2 33434  98.6782 129.7626 0013245 299.8273  60.1592 14.29774923806136
Source of the keplerian elements: AFSPC